This is the latest recevied weather packets stored in our database for station/object OE3TEC-15. If no packets are shown the sender has not sent any weather packets the latest 10 day(s).
| Time | Temp. | Humidity | Pressure | Rain* | Wind** | Luminosity | Snow |
|---|---|---|---|---|---|---|---|
| 1777833196 | 20° C | 39% | 1015.6 hPa | 0 mm | - | 0 W/m² | - |
| 1777832590 | 20° C | 38% | 1015.4 hPa | 0 mm | - | 1 W/m² | - |
| 1777831983 | 20.56° C | 38% | 1015.4 hPa | 0 mm | - | 2 W/m² | - |
| 1777831375 | 20.56° C | 37% | 1015.4 hPa | 0 mm | - | 4 W/m² | - |
| 1777830768 | 21.11° C | 37% | 1015.4 hPa | 0 mm | - | 7 W/m² | - |
| 1777830161 | 21.67° C | 36% | 1015.2 hPa | 0 mm | - | 13 W/m² | - |
| 1777829552 | 21.67° C | 35% | 1015.1 hPa | 0 mm | - | 17 W/m² | - |
| 1777828946 | 22.22° C | 35% | 1015 hPa | 0 mm | - | 23 W/m² | - |
| 1777828338 | 22.78° C | 35% | 1014.9 hPa | 0 mm | - | 26 W/m² | - |
| 1777827731 | 22.78° C | 35% | 1015.1 hPa | 0 mm | - | 27 W/m² | - |
| 1777827125 | 22.78° C | 34% | 1014.9 hPa | 0 mm | - | 35 W/m² | - |
| 1777826515 | 23.33° C | 34% | 1015 hPa | 0 mm | - | 38 W/m² | - |
| 1777825910 | 23.33° C | 33% | 1015.1 hPa | 0 mm | - | 44 W/m² | - |
| 1777825303 | 23.89° C | 33% | 1015.1 hPa | 0 mm | - | 48 W/m² | - |
| 1777824695 | 23.89° C | 33% | 1015 hPa | 0 mm | - | 75 W/m² | - |
| 1777824088 | 23.89° C | 32% | 1015.1 hPa | 0 mm | - | 101 W/m² | - |
| 1777823480 | 24.44° C | 33% | 1015.2 hPa | 0 mm | - | 120 W/m² | - |
| 1777822874 | 24.44° C | 32% | 1015.3 hPa | 0 mm | - | 156 W/m² | - |
| 1777822266 | 24.44° C | 32% | 1015.3 hPa | 0 mm | - | 173 W/m² | - |
| 1777821658 | 24.44° C | 32% | 1015.5 hPa | 0 mm | - | 212 W/m² | - |
| 1777821051 | 24.44° C | 32% | 1015.7 hPa | 0 mm | - | 245 W/m² | - |
| 1777820446 | 24.44° C | 33% | 1015.6 hPa | 0 mm | - | 271 W/m² | - |
| 1777819837 | 25° C | 32% | 1016 hPa | 0 mm | - | 295 W/m² | - |
| 1777819230 | 25° C | 31% | 1016 hPa | 0 mm | - | 318 W/m² | - |
| 1777818623 | 25° C | 32% | 1016 hPa | 0 mm | - | 344 W/m² | - |
* Rain latest hour (hover to see other rain measurements)
** Current wind speed in m/s (hover to see current wind gust speed)